Flag for U.S.A. Weather past 2 weeks in Antioch, California, U.S.A.

Now
65 °F

Sunny.


Feels Like: 65 °F
Forecast: 46 / 70 °F
Wind: 12 mph from West

Location: Buchanan Field


UV Index: 5 (Moderate)

Visibility: 10 mi


Pressure: 30.08 "Hg

Humidity: 31%

Dew point: 33 °F

Location of AntiochLocation

Historic Weather in Antioch

°F

Antioch temperature yesterday

Maximum temperature yesterday: 66 °F (at 1:53 PM)
Minimum temperature yesterday: 50 °F (at 3:53 AM)
Average temperature yesterday: 56 °F

Past Weeks' High & Low Weather Summary

 TemperatureHumidityPressure
High82 °F (Apr 8, 4:53 PM)97% (Apr 11, 3:53 AM)30.11 "Hg (Apr 11, 3:53 AM)
Low45 °F (Apr 23, 5:53 AM)21% (Apr 20, 3:53 PM)29.75 "Hg (Apr 17, 5:53 AM)
Average61 °F64%29.93 "Hg
* Reported Apr 8 11:53 AM — Apr 23 11:53 AM, Antioch, Weather by CustomWeather, © 2014

Note: Actual official high and low records may vary slightly from our data, if they occured in-between our weather recording intervals... More about our weather records

Advertising

Historic Weather Conditions — Data for Previous 24 hours

 ConditionsComfort  
Time TempWeatherWind HumidityBarometerVisibility
11:53 AM
Apr 23
64 °FSunny.8 mph37%30.09 "Hg10 mi
10:53 AM61 °FSunny.7 mph41%30.10 "Hg10 mi
9:53 AM58 °FSunny.6 mph47%30.11 "Hg10 mi
8:53 AM54 °FSunny.5 mph55%30.10 "Hg10 mi
7:53 AM50 °FSunny.6 mph63%30.10 "Hg10 mi
6:53 AM45 °FClear.5 mph76%30.08 "Hg10 mi
5:53 AM45 °FClear.3 mph74%30.07 "Hg10 mi
4:53 AM48 °FClear.7 mph66%30.07 "Hg10 mi
3:53 AM49 °FClear.3 mph61%30.06 "Hg10 mi
2:53 AM49 °FClear.6 mph61%30.06 "Hg10 mi
1:53 AM51 °FClear.3 mph56%30.06 "Hg10 mi
12:53 AM50 °FClear.7 mph61%30.06 "Hg10 mi
11:53 PM
Apr 22
51 °FClear.7 mph61%30.08 "Hg10 mi
10:53 PM52 °FClear.7 mph64%30.07 "Hg10 mi
9:53 PM52 °FClear.8 mph64%30.07 "Hg10 mi
8:53 PM53 °FClear.10 mph59%30.06 "Hg10 mi
7:53 PM55 °FSunny.12 mph51%30.05 "Hg10 mi
6:53 PM57 °FSunny.14 mph47%30.04 "Hg10 mi
5:53 PM59 °FPassing clouds.17 mph46%30.03 "Hg10 mi
4:53 PM63 °FPassing clouds.21 mph38%30.03 "Hg10 mi
3:53 PM63 °FPassing clouds.18 mph41%30.03 "Hg10 mi
2:53 PM64 °FSunny.18 mph38%30.03 "Hg10 mi
1:53 PM66 °FScattered clouds.10 mph36%30.04 "Hg10 mi
Weather by CustomWeather, © 2014

See weather overview